Find Starlink 4787

NORAD ID: 53904 Int'l Des: 2022-119 Owner: SPXS Country: US Constellation: starlink operational
LEOCIRCULAR

实时位置

正在加载3D地球...

关于 Starlink 4787

正在加载描述...

即将过境

Passes for default location (London). Set your location on the main map for personalized predictions.

高度历史

Loading altitude history...

两行轨道根数

1 53904U 22119U 26125.28136233 .00000849 00000-0 71425-4 0 9994
2 53904 53.2182 69.6712 0001385 90.6813 269.4338 15.08835721200231
Epoch: May 5, 2026 • Age: 7 hours

当前状态

高度 558.0 km
速度 7.58 km/s
星下点 -50.09°S, 125.85°W
发射日期 Sep 24, 2022
运行时间 3.6 years
类型 internet

技术详情

分类 Payload
质量 305.00 kg
干质量 290.00 kg
总质量 305.00 kg
长度 0.20 m
直径 2.80 m
跨度 9.00 m
形状 Box + pan
制造商 SPXS
平台类型 Starlink
阶段状态 In Orbit
所有者/国家 SPXS/US

Most Searched